Location: Bottom School (historical)
(37.9078°N, 89.3593°W)
Time: 22:33:04
(UTC+00:00)

Cosmos 1570 Rocket - Pass Details

Date: 07 July 2022
Orbit: 762 x 788 km, 74.1° (Epoch: 15 August)

Event Time Altitude Azimuth Distance (km) Brightness Sun altitude
Exits shadow 07:44:26 71° 166° (SSE) 810 3.9 -24.9°
Maximum altitude 07:44:57 80° 107° (ESE) 781 3.9 -24.9°
Drops below altitude 10° 07:50:13 10° 21° (NNE) 2,316 7.5 -24.4°
Sets 07:52:36 0° 20° (NNE) 3,250 8.6 -24.2°
